カタログに戻る

STARLINK-5558

運用中通信VLEO
NORAD 55631·PAYLOAD·🇺🇸 United States

打ち上げ Feb 17, 2023 から Vandenberg Space Force Base

Loading…

次のパス (今後24時間)

TLE

最新Source: CelesTrak SupGP

元期: Sep 15, 2026, 01:31 UTC

1 55631C 23021D   26258.06368056 -.00016684  00000+0 -13981-2 0  2583
2 55631  69.9998  86.8852 0002548 273.4778 202.8746 14.98344480    11

AllMySatでSTARLINK-5558をリアルタイム追跡

Download on the App Store